Date String (YYYY-MM-DD hh:mm:ss) UTC,Instrument flags,Ambient pressure (hPa),Sample flow (lpm),Bypass flow (lpm),Sample temperature (°C),Ambient temperature (°C),ASC tube jacket temperature (°C),LED temperature (°C),Box temperature (°C),Sample RH (%),Span deviation,Mass concentration (μg/m³),Mass concentration (μg/m³),Mass concentration (μg/m³)
DateTimeUTC,F1_M11,P_M11,Q1_M11,Q2_M11,T1_M11,T2_M11,T3_M11,T4_M11,T5_M11,U1_M11,ZSPAN_M11,X0_M11,X2_M11,X1_M11
2021-12-15 20:00:00,,0803.4,5.00,0.00,22.5,22.2,00.0,31.4,24.2,07.6,0000.0,0030.95,0004.13,0000.65
2021-12-15 20:01:00,,0804.3,5.00,0.00,22.4,21.9,00.0,31.4,24.1,07.7,0000.0,0029.67,0004.08,0000.63
2021-12-15 20:02:00,,0804.2,5.00,0.00,22.4,21.6,00.0,31.4,24.0,07.8,0000.0,0029.86,0003.99,0000.61
2021-12-15 20:03:00,,0804.2,4.98,0.00,22.4,21.4,00.0,31.4,23.9,07.9,0000.0,0026.84,0003.81,0000.57
2021-12-15 20:04:00,,0804.2,5.00,0.00,22.3,21.1,00.0,31.3,23.8,08.1,0000.0,0026.99,0003.86,0000.57
2021-12-15 20:05:00,,0804.2,4.99,0.00,22.3,21.0,00.0,31.3,23.8,08.5,0000.0,0026.22,0003.99,0000.59
2021-12-15 20:06:00,,0804.1,5.01,0.00,22.2,20.9,00.0,31.3,23.7,08.8,0000.0,0029.80,0004.10,0000.61
2021-12-15 20:07:00,,0804.2,5.00,0.00,22.1,20.8,00.0,31.3,23.6,09.0,0000.0,0028.37,0004.04,0000.63
2021-12-15 20:08:00,,0804.4,5.00,0.00,22.1,20.8,00.0,31.2,23.6,09.2,0000.0,0028.06,0004.04,0000.63
2021-12-15 20:09:00,,0804.4,5.01,0.00,22.1,20.8,00.0,31.2,23.6,09.2,0000.0,0028.03,0004.08,0000.63
2021-12-15 20:10:00,,0804.4,4.99,0.00,22.1,21.7,00.0,31.3,23.9,09.0,0000.0,0027.01,0004.16,0000.65
2021-12-15 20:11:00,,0804.6,4.99,0.00,22.3,22.7,00.0,31.3,24.2,08.8,0000.0,0030.08,0004.27,0000.67
2021-12-15 20:12:00,,0804.9,5.02,0.00,22.4,23.1,00.0,31.3,24.5,08.8,0000.0,0032.63,0004.45,0000.71
2021-12-15 20:13:00,,0804.8,5.01,0.00,22.5,22.8,00.0,31.3,24.4,08.9,0000.0,0031.54,0004.49,0000.75
2021-12-15 20:14:00,,0804.5,4.98,0.00,22.5,22.5,00.0,31.4,24.3,08.9,0000.0,0032.27,0004.56,0000.78
2021-12-15 20:15:00,,0804.1,4.99,0.00,22.5,22.1,00.0,31.4,24.2,08.8,0000.0,0032.52,0004.67,0000.81
2021-12-15 20:16:00,,0804.3,5.01,0.00,22.4,21.8,00.0,31.4,24.1,08.8,0000.0,0037.13,0004.73,0000.82
2021-12-15 20:17:00,,0804.6,5.01,0.00,22.4,21.5,00.0,31.3,24.0,08.7,0000.0,0039.43,0004.76,0000.82
2021-12-15 20:18:00,,0804.5,4.99,0.00,22.3,21.3,00.0,31.3,23.9,08.8,0000.0,0040.47,0004.95,0000.85
2021-12-15 20:19:00,,0804.4,5.00,0.00,22.3,21.1,00.0,31.3,23.8,08.9,0000.0,0042.07,0005.08,0000.90
2021-12-15 20:20:00,,0804.2,4.98,0.00,22.2,21.0,00.0,31.3,23.7,08.8,0000.0,0042.95,0005.14,0000.92
2021-12-15 20:21:00,,0804.4,5.01,0.00,22.2,20.9,00.0,31.3,23.7,08.6,0000.0,0042.58,0005.14,0000.91
2021-12-15 20:22:00,,0804.7,5.01,0.00,22.1,21.1,00.0,31.3,23.7,08.5,0000.0,0039.32,0004.99,0000.87
2021-12-15 20:23:00,,0804.7,4.99,0.00,22.2,21.9,00.0,31.3,24.0,08.4,0000.0,0037.69,0004.86,0000.84
2021-12-15 20:24:00,,0804.8,4.99,0.00,22.4,22.9,00.0,31.3,24.3,08.1,0000.0,0038.39,0004.93,0000.86
2021-12-15 20:25:00,,0804.7,5.00,0.00,22.5,23.1,00.0,31.4,24.5,08.0,0000.0,0039.60,0005.01,0000.85
2021-12-15 20:26:00,,0804.5,5.00,0.00,22.5,22.8,00.0,31.4,24.4,07.7,0000.0,0042.71,0004.94,0000.83
2021-12-15 20:27:00,,0804.6,5.01,0.00,22.5,22.4,00.0,31.4,24.3,07.7,0000.0,0041.68,0004.82,0000.81
2021-12-15 20:28:00,,0804.8,4.98,0.00,22.4,22.0,00.0,31.4,24.1,07.7,0000.0,0035.17,0004.63,0000.76
2021-12-15 20:29:00,,0804.6,5.01,0.00,22.4,21.7,00.0,31.4,24.0,07.7,0000.0,0032.43,0004.36,0000.72
2021-12-15 20:30:00,,0804.9,5.00,0.00,22.3,21.4,00.0,31.3,23.9,07.5,0000.0,0030.69,0004.22,0000.70
2021-12-15 20:31:00,,0804.9,5.00,0.00,22.3,21.3,00.0,31.3,23.8,07.5,0000.0,0032.13,0004.27,0000.71
2021-12-15 20:32:00,,0805.2,4.99,0.00,22.2,21.1,00.0,31.3,23.7,07.4,0000.0,0034.79,0004.30,0000.73
2021-12-15 20:33:00,,0804.9,5.00,0.00,22.2,21.0,00.0,31.3,23.7,07.6,0000.0,0034.33,0004.30,0000.75
2021-12-15 20:34:00,,0805.3,5.00,0.00,22.2,21.3,00.0,31.3,23.8,07.7,0000.0,0036.78,0004.63,0000.85
2021-12-15 20:35:00,,0805.2,5.01,0.00,22.3,22.2,00.0,31.3,24.1,07.6,0000.0,0040.04,0004.86,0000.90
2021-12-15 20:36:00,,0805.3,5.00,0.00,22.5,23.1,00.0,31.4,24.4,07.4,0000.0,0038.76,0004.78,0000.90
2021-12-15 20:37:00,,0805.3,5.01,0.00,22.6,23.0,00.0,31.4,24.5,07.3,0000.0,0034.50,0004.72,0000.89
2021-12-15 20:38:00,,0805.1,4.99,0.00,22.6,22.7,00.0,31.4,24.4,07.3,0000.0,0031.59,0004.59,0000.87
2021-12-15 20:39:00,,0805.3,5.00,0.00,22.5,22.3,00.0,31.4,24.3,07.4,0000.0,0031.73,0004.56,0000.88
2021-12-15 20:40:00,,0805.6,5.01,0.00,22.5,21.9,00.0,31.4,24.1,07.4,0000.0,0031.57,0004.59,0000.88
2021-12-15 20:41:00,,0805.8,5.00,0.00,22.5,21.7,00.0,31.4,24.1,07.4,0000.0,0030.64,0004.50,0000.86
2021-12-15 20:42:00,,0805.6,5.00,0.00,22.4,21.5,00.0,31.4,24.0,07.6,0000.0,0028.98,0004.33,0000.82
2021-12-15 20:43:00,,0805.5,5.00,0.00,22.4,21.4,00.0,31.4,24.0,07.7,0000.0,0026.64,0004.23,0000.79
2021-12-15 20:44:00,,0805.5,5.02,0.00,22.3,21.3,00.0,31.4,23.9,07.6,0000.0,0025.65,0004.07,0000.74
2021-12-15 20:45:00,,0805.8,4.99,0.00,22.3,21.2,00.0,31.3,23.9,07.6,0000.0,0022.23,0003.67,0000.64
2021-12-15 20:46:00,,0805.9,5.01,0.00,22.2,21.1,00.0,31.3,23.8,07.6,0000.0,0018.37,0003.41,0000.57
2021-12-15 20:47:00,,0805.9,5.02,0.00,22.2,21.0,00.0,31.3,23.7,07.6,0000.0,0016.72,0003.30,0000.54
2021-12-15 20:48:00,,0805.9,4.99,0.00,22.2,21.5,00.0,31.3,23.9,07.7,0000.0,0017.13,0003.25,0000.53
2021-12-15 20:49:00,,0806.0,5.02,0.00,22.3,22.4,00.0,31.3,24.2,07.7,0000.0,0016.33,0003.15,0000.51
2021-12-15 20:50:00,,0806.1,5.00,0.00,22.5,23.2,00.0,31.4,24.5,07.6,0000.0,0015.60,0003.06,0000.51
2021-12-15 20:51:00,,0805.7,5.01,0.00,22.6,23.1,00.0,31.4,24.6,07.6,0000.0,0017.32,0003.00,0000.50
2021-12-15 20:52:00,,0805.7,4.99,0.00,22.6,22.7,00.0,31.4,24.4,07.3,0000.0,0021.52,0003.20,0000.51
2021-12-15 20:53:00,,0805.4,4.98,0.00,22.6,22.3,00.0,31.4,24.3,07.3,0000.0,0024.12,0003.31,0000.53
2021-12-15 20:54:00,,0805.9,5.01,0.00,22.5,21.9,00.0,31.4,24.1,07.4,0000.0,0027.69,0003.46,0000.56
2021-12-15 20:55:00,,0806.0,5.00,0.00,22.4,21.7,00.0,31.4,24.0,07.5,0000.0,0028.34,0003.55,0000.59
2021-12-15 20:56:00,,0806.2,4.99,0.00,22.4,21.4,00.0,31.4,24.0,07.4,0000.0,0028.89,0003.62,0000.60
2021-12-15 20:57:00,,0806.1,5.01,0.00,22.3,21.3,00.0,31.4,23.9,07.3,0000.0,0029.21,0003.57,0000.59
2021-12-15 20:58:00,,0805.9,5.00,0.00,22.3,21.1,00.0,31.4,23.8,07.2,0000.0,0032.52,0003.70,0000.61
2021-12-15 20:59:00,,0806.2,5.01,0.00,22.2,21.0,00.0,31.3,23.7,07.2,0000.0,0033.02,0003.77,0000.64
